{"data":{"norad_id":62578,"intl_designator":"2025-007D","name":"CENTISPACE-1 S9","alt_names":[],"object_type":"PAYLOAD","status":"ACTIVE","operator":null,"country":"PRC","launch_date":"2025-01-13","launch_site_code":"YSLA","launch_vehicle":null,"mission":null,"orbit_class":"UNKNOWN","rcs_meters":null,"size_class":null,"mass_kg":null,"dimensions":null,"purposes":[],"wikipedia_slug":null,"has_3d_model":false,"image_url":null,"decayed_at":null,"tle_current":{"epoch":"2026-09-22T18:38:58.092000Z","epoch_age_seconds":120875,"freshness":"FRESH","line1":"1 62578U 25007D   26265.77706125 -.00000070  00000+0  66554-4 0  9995","line2":"2 62578  54.9832 311.0286 0009426 266.8033  93.1845 13.80623127 88190","mean_motion":13.80623127,"eccentricity":0.0009426,"inclination_deg":54.9832,"raan_deg":311.0286,"arg_perigee_deg":266.8033,"mean_anomaly_deg":93.1845,"bstar":6.6554e-5,"rev_number":8819,"period_min":104.30072999929,"perigee_km":954.75889887187,"apogee_km":968.59591699371,"semimajor_km":7339.8144079328,"source":"CELESTRAK","updated_at":"2026-09-23T09:00:21.489357Z"}}}